Zurück zum Katalog

DMSP 5D-2 F13 DEB

AktivPO
NORAD 40437·DEBRIS·🇺🇸 United States

Gestartet Mar 24, 1995 von Vandenberg Space Force Base

Loading…

Nächste Überflüge (nächste 24 Stunden)

TLE

AktuellSource: Space-Track

Epoche: Sep 14, 2026, 04:36 UTC

1 40437U 95015AP  26257.19189871  .00023345  00000-0  30393-2 0  9991
2 40437  98.6662 344.0698 0015523 159.0056 201.1795 14.80534851603242

Verfolge DMSP 5D-2 F13 DEB in Echtzeit mit AllMySat

Download on the App Store